Overview Statistics Trail Chart Weather Telemetry Raw packets
 

This is the latest recevied weather packets stored in our database for station/object CW79215. If no packets are shown the sender has not sent any weather packets the latest 10 day(s).

<< 10 11 12 13 14 15 16 >>
Time Temp. Humidity Pressure Rain* Wind** Luminosity Snow
1788444339 26.67° C 31% 1031.7 hPa - - - -
1788443439 26.11° C 32% 1031.9 hPa - - - -
1788442539 26.11° C 33% 1032 hPa - - - -
1788441639 26.11° C 32% 1032.1 hPa - - - -
1788440739 26.67° C 31% 1032 hPa - - - -
1788439839 26.67° C 30% 1032.1 hPa - - - -
1788438939 27.22° C 30% 1032.1 hPa - - - -
1788438038 26.67° C 31% 1032 hPa - - - -
1788437138 26.67° C 30% 1032.2 hPa - - - -
1788436238 26.67° C 31% 1032.3 hPa - - - -
1788435338 25.56° C 32% 1032.7 hPa - - - -
1788434438 25.56° C 32% 1032.8 hPa - - - -
1788433538 25.56° C 33% 1032.9 hPa - - - -
1788432638 24.44° C 35% 1033.1 hPa - - - -
1788431738 25° C 34% 1033.2 hPa - - - -
1788430838 25° C 35% 1033.2 hPa - - - -
1788429938 25° C 34% 1033.3 hPa - - - -
1788429038 25° C 35% 1033.4 hPa - - - -
1788428137 25.56° C 35% 1033.3 hPa - - - -
1788427237 25° C 36% 1033.4 hPa - - - -
1788426337 25° C 38% 1033.6 hPa - - - -
1788425437 23.89° C 40% 1033.6 hPa - - - -
1788424539 24.44° C 39% 1033.4 hPa - - - -
1788423639 23.89° C 42% 1033.4 hPa - - - -
1788422738 22.78° C 45% 1033.5 hPa - - - -

* Rain since midnight (hover to see other rain measurements)
** Current wind speed in m/s (hover to see current wind gust speed)